Wetterdaten: aktuell Samstag, 24.10.2020 20:40
Datum Zeit Temp. 2m Feuchte A. Luftdruck Regen Wind Richtung Richtung Sonnenschein Helligkeit Solar Taupunkt Windchill
24.10.2020 20:40 12,3 C 79 % 1016,3 hPa 0,0 l/m 14,9 km/h (3 Bft) S45 185 0 min 0 lux 0 W/m 8,8 C 8,0 C
24.10.2020 20:35 12,2 C 79 % 1016,3 hPa 0,0 l/m 20,2 km/h (4 Bft) S45 180 0 min 0 lux 0 W/m 8,7 C 6,1 C
24.10.2020 20:30 12,1 C 79 % 1016,3 hPa 0,0 l/m 13,0 km/h (3 Bft) S45 170 0 min 0 lux 0 W/m 8,6 C 8,5 C
24.10.2020 20:25 12,1 C 79 % 1016,3 hPa 0,0 l/m 13,3 km/h (3 Bft) S45 175 0 min 0 lux 0 W/m 8,6 C 8,4 C
24.10.2020 20:20 12,3 C 79 % 1016,3 hPa 0,0 l/m 14,2 km/h (3 Bft) S-SO22.5 165 0 min 0 lux 0 W/m 8,8 C 8,2 C
24.10.2020 20:15 12,2 C 79 % 1016,3 hPa 0,0 l/m 16,6 km/h (3 Bft) S-SW67.5 195 0 min 0 lux 0 W/m 8,7 C 7,2 C
24.10.2020 20:10 12,2 C 79 % 1016,3 hPa 0,0 l/m 13,3 km/h (3 Bft) S45 190 0 min 0 lux 0 W/m 8,7 C 8,5 C
24.10.2020 20:05 12,3 C 79 % 1016,3 hPa 0,0 l/m 12,0 km/h (2 Bft) S45 190 0 min 0 lux 0 W/m 8,8 C 9,2 C
24.10.2020 20:00 12,5 C 79 % 1016,3 hPa 0,0 l/m 16,2 km/h (3 Bft) S45 185 0 min 0 lux 0 W/m 9,0 C 7,7 C
24.10.2020 19:55 12,5 C 79 % 1016,3 hPa 0,0 l/m 12,7 km/h (3 Bft) S67.5 180 0 min 0 lux 0 W/m 9,0 C 9,1 C
24.10.2020 19:50 12,4 C 79 % 1016,3 hPa 0,0 l/m 10,0 km/h (2 Bft) S-SO22.5 165 0 min 0 lux 0 W/m 8,9 C 10,2 C
24.10.2020 19:45 12,3 C 79 % 1016,3 hPa 0,0 l/m 13,1 km/h (3 Bft) S45 170 0 min 0 lux 0 W/m 8,8 C 8,7 C
24.10.2020 19:40 12,3 C 79 % 1016,3 hPa 0,0 l/m 17,3 km/h (3 Bft) S45 175 0 min 0 lux 0 W/m 8,8 C 7,1 C
24.10.2020 19:35 12,3 C 79 % 1016,3 hPa 0,0 l/m 18,5 km/h (3 Bft) S22.5 175 0 min 0 lux 0 W/m 8,8 C 6,7 C
24.10.2020 19:30 12,3 C 79 % 1016,3 hPa 0,0 l/m 13,0 km/h (3 Bft) S45 185 0 min 0 lux 0 W/m 8,8 C 8,7 C
24.10.2020 19:25 12,3 C 79 % 1016,3 hPa 0,0 l/m 15,7 km/h (3 Bft) S-SO22.5 165 0 min 0 lux 0 W/m 8,8 C 7,7 C
24.10.2020 19:20 12,2 C 79 % 1016,3 hPa 0,0 l/m 8,9 km/h (2 Bft) S-SO45 160 0 min 0 lux 0 W/m 8,7 C 10,6 C
24.10.2020 19:15 12,2 C 79 % 1016,3 hPa 0,0 l/m 6,7 km/h (2 Bft) S 170 0 min 0 lux 0 W/m 8,7 C 12,0 C
24.10.2020 19:10 12,3 C 79 % 1016,3 hPa 0,0 l/m 11,4 km/h (2 Bft) S-SO22.5 165 0 min 0 lux 0 W/m 8,8 C 9,4 C
_ Min-Zeit 06:55 13:00 00:00 - 06:50 - - - - - 06:55 08:55
Minimum _ 10,0 C 62 % 1013,1 hPa - 0,0 km/h (0 Bft) - - - - - 6,7 C 6,0 C
_ Max-Zeit 13:05 07:35 10:50 07:40 20:35 - - 08:11 13:50 13:50 14:56 13:05
Maximum _ 16,3 C 82 % 1017,1 hPa 0,3 l/m 20,2 km/h
S (4 Bft)
- - 6 min 52,8 klux 219 W/m 10,6 C 16,3 C
Durchschnitt _ 13,0 C 76 % 1015,6 hPa #0,3 l/m 4,0 km/h (1 Bft) W-SW - #8:19 h 13,9 klux 102 W/m 8,9 C 12,3 C
copyright (c) - www.lichtentanne-wetter.de